Location: Barcelona
(41.3830°N, 2.1830°E)
Time: 13:19:51
(UTC+02:00)

ISS - Pass Details

Date: 04 April 2020
Orbit: 417 x 419 km, 51.6° (Epoch: 31 May)

Event Time Altitude Azimuth Distance (km) Brightness Sun altitude
Rises 21:44:44 0° 302° (WNW) 2,364 1.8 -16.0°
Reaches altitude 10° 21:46:52 10° 298° (WNW) 1,497 0.4 -16.4°
Maximum altitude 21:50:09 54° 220° (SW) 510 -3.3 -17.0°
Enters shadow 21:51:08 37° 164° (SSE) 663 -3.1 -17.1°
